Regional Weather Roundup
Issued by NWS Midland/Odessa, TX

Skip options and go directly to product.
Home | Oldest Version | Previous Version | Current Version | All | Text Only | Save Text | Print | Product List | Glossary On

Skip product version selection by date and time.   
826
ASUS44 KMAF 281510
RWRMAF
MIDLAND AREA WEATHER ROUNDUP
NATIONAL WEATHER SERVICE MIDLAND TX
1000 AM CDT THU AUG 28 2014

...IN SOUTHWEST TEXAS AND SOUTHEAST NEW MEXICO...

CITY           SKY/WX    TMP DP  RH WIND       PRES   REMARKS
ALPINE         MOSUNNY   81  58  46 SW9       30.19S
ANDREWS        FAIR      81  60  48 SW14      30.03F
ARTESIA        NOT AVBL
BIG SPRING     PTSUNNY   82  61  50 S15       30.04S
CARLSBAD       SUNNY     81  60  48 MISG      30.05S
DRYDEN           N/A     85  63  47 E8        30.01R
FORT STOCKTON  PTSUNNY   79  60  52 S8        30.04S
GUAD PASS      SUNNY     71  59  65 SW7       30.22R
HOBBS          SUNNY     79  59  50 S7        30.08S
MARFA          SUNNY     75  59  57 SE6       30.20S
MIDLAND AIRPK  PTSUNNY   82  59  46 S12       30.03S
MIDLAND INTL   PTSUNNY   80  60  50 S14       30.02S
ODESSA         PTSUNNY   81  59  47 S15       30.04R
PECOS          MOSUNNY   80  59  48 W3        30.01F
PRESIDIO       FAIR      85  60  42 E3        30.05R
SEMINOLE       MOSUNNY   81  58  45 S9        30.05F
SNYDER         MOSUNNY   79  61  53 S12       30.02S
WINK           SUNNY     84  60  44 S3        30.00S
$$
...OTHER STATIONS IN TEXAS...

CITY           SKY/WX    TMP DP  RH WIND       PRES   REMARKS
ABILENE        SUNNY     84  63  49 S13       30.00S
AMARILLO       SUNNY     79  59  50 W12       30.04F
AUSTIN         MOSUNNY   84  73  69 E3        29.96S
BROWNSVILLE    PTSUNNY   85  77  77 NW10      29.85R
CORPUS CHRISTI PTSUNNY   85  75  72 E8        29.89R
DALLAS FTW     MOSUNNY   85  68  56 S10       29.97S
DEL RIO        SUNNY     84  68  58 SE8       29.96F
EL PASO        MOSUNNY   77  57  50 N6        30.12S
HOUSTON INT    PTSUNNY   84  75  74 SE14G22   29.96R
LUBBOCK        MOSUNNY   81  60  48 SW13      30.04S
SAN ANGELO     SUNNY     83  65  54 S8        30.01R
SAN ANTONIO    MOSUNNY   84  73  69 E7        29.96F
WACO           SUNNY     83  70  64 S7        29.98R
WICHITA FALLS  NOT AVBL
$$
...OTHER LOCATIONS IN NEW MEXICO...

CITY           SKY/WX    TMP DP  RH WIND       PRES   REMARKS
ALAMAGORDO     SUNNY     73  57  56 NW8       30.14S
ALBUQUERQUE    SUNNY     67  43  41 N8        30.25R
CANNON AFB     SUNNY     73  60  62 W8        30.10S
CLOVIS           N/A     77  59  53 W7        30.11S
HOLLOMAN AFB   SUNNY     73  59  60 NW7       30.12F
ROSWELL        SUNNY     78  62  57 CALM      30.08S
RUIDOSO        SUNNY     66  46  48 NW8       30.32S
SANTA FE       SUNNY     64  43  46 NW6       30.26R
TRUTH OR CONSE SUNNY     71  52  50 N7        30.20R
TUCUMCARI      SUNNY     75  50  41 N8        30.08S
$$

USA.gov is the U.S. government's official web portal to all federal, state and local government web resources and services.